Location: *
(46.1006°N, 1.8394°E)
Time: 11:21:21
(UTC+00:00)

Resurs 01 Rocket - Pass Details

Date: 20 September 2019
Orbit: 635 x 644 km, 98.0° (Epoch: 21 October)

Event Time Altitude Azimuth Distance (km) Brightness Sun altitude
Exits shadow 19:53:04 51° 96° (E) 807 1.7 -20.7°
Maximum altitude 19:53:31 54° 72° (ENE) 783 1.7 -20.7°
Drops below altitude 10° 19:57:52 10° 355° (N) 2,049 4.6 -21.4°
Sets 20:00:07 0° 351° (N) 2,964 5.5 -21.8°
